Theta_e
305 306 307 307 309 310 309 306 311 312 312 312 313 313 313 313 313 316 316 315 319 318 315 316 319 317 317 317 316 314 313 312 314 317 316 315 319 321 322 333 339 352 357 350 347
304 304 305 305 308 310 310 308 307 312 312 312 313 313 313 313 314 318 319 320 319 317 316 317 318 319 315 316 317 315 312 315 313 315 315 315 318 316 322 325 335 351 354 349 339
302 303 304 304 307 312 311 310 306 310 312 312 312 312 312 312 321 320 323 319 321 317 316 318 320 321 319 314 315 315 315 315 317 315 316 317 317 316 320 320 324 353 351 346 341
301 302 302 302 305 311 313 311 307 306 312 312 312 312 312 314 323 322 325 323 320 317 318 320 320 320 314 316 313 316 315 315 317 315 316 318 318 318 318 319 320 343 339 337 341
301 301 302 301 304 310 314 313 307 306 310 312 312 313 312 318 320 320 321 317 317 317 318 319 322 320 318 316 316 315 315 315 315 314 315 319 319 319 317 317 318 322 335 342 345
301 300 301 301 303 307 313 313 307 306 308 313 313 313 318 316 318 322 318 316 316 317 319 318 320 317 317 318 317 317 318 316 317 319 317 319 319 319 319 318 319 320 320 320 320
301 300 300 301 302 306 313 314 308 306 307 311 313 313 319 317 318 322 318 316 315 317 320 322 320 319 318 317 317 319 319 316 318 320 319 318 318 319 318 318 319 318 318 319 320
301 300 300 301 302 306 313 314 309 310 309 310 312 315 317 318 317 318 318 319 320 321 321 321 321 318 319 317 317 318 318 319 318 319 319 318 318 318 317 318 318 318 317 318 319
301 300 301 301 302 307 314 313 310 315 314 311 313 316 317 321 320 319 320 319 321 321 321 321 320 318 317 318 316 314 318 319 320 318 318 318 319 318 317 317 317 316 317 318 317
301 300 301 301 303 308 313 313 315 317 317 318 318 316 318 323 324 322 322 321 320 320 319 320 315 316 314 315 319 319 318 318 319 321 319 317 318 317 318 317 317 316 316 317 317
301 300 301 302 304 311 313 318 318 320 321 321 319 320 321 325 325 322 321 320 320 320 319 319 318 318 318 317 318 320 321 320 320 319 319 318 317 317 317 317 317 316 317 316 317
300 300 301 303 306 315 315 317 322 319 317 321 322 320 321 322 325 322 322 319 320 319 319 318 318 319 320 320 321 321 318 318 318 319 320 318 319 318 318 317 316 316 316 317 316
300 300 301 304 310 319 318 319 319 320 319 320 321 323 323 323 325 325 319 319 320 319 318 318 319 321 321 321 322 320 320 319 319 320 319 320 319 319 319 318 318 318 316 316 315
300 300 300 304 316 315 319 317 319 320 320 324 322 322 321 320 322 323 321 320 319 320 318 318 319 320 320 321 320 321 320 320 321 320 320 320 320 318 319 318 318 318 316 317 316
300 300 301 303 312 315 316 317 319 321 325 329 323 322 322 322 323 323 322 320 320 320 319 319 320 320 321 322 322 320 320 321 322 320 319 320 320 320 319 319 319 319 320 318 317
300 301 304 307 310 316 313 319 321 326 330 327 324 324 323 323 323 322 320 320 319 319 320 319 319 321 321 321 321 321 321 319 317 317 320 320 321 322 320 320 320 321 320 320 317
300 302 309 308 313 312 313 318 322 326 324 325 324 324 323 323 323 322 321 320 319 320 319 319 320 320 321 320 319 320 319 322 322 321 323 320 321 320 320 323 323 321 321 321 320
300 304 311 313 313 313 316 319 326 325 324 322 322 324 323 321 322 324 323 321 320 320 320 321 323 323 322 321 321 321 320 326 331 330 329 324 326 323 322 323 323 323 322 322 321
301 310 314 315 311 312 316 322 324 324 321 323 323 324 322 323 322 323 322 323 321 320 323 323 324 322 322 320 319 320 320 319 320 322 325 323 322 322 322 322 320 319 322 322 321
303 308 314 311 310 313 317 322 322 320 320 321 322 321 320 320 322 320 321 318 319 318 317 320 322 321 322 320 318 318 317 320 320 326 325 322 325 322 322 318 317 317 319 321 320
305 308 313 312 313 309 314 318 317 314 315 319 317 318 319 318 320 320 321 314 314 315 316 317 320 321 319 319 318 312 314 315 314 318 324 326 323 324 319 315 315 316 317 320 320
301 305 313 312 311 314 313 312 312 312 311 314 313 313 313 314 315 316 316 315 312 315 317 312 316 319 319 314 312 311 312 311 314 317 316 324 323 314 314 316 316 316 316 317 319
299 303 312 311 308 308 309 311 312 311 310 311 312 311 310 309 310 314 315 312 311 313 312 310 308 309 309 307 308 309 309 310 308 311 318 319 315 310 317 317 316 315 316 317 319
301 308 304 304 305 307 308 309 310 312 312 311 309 309 309 310 310 312 313 313 311 312 315 309 308 308 309 309 310 310 309 310 309 307 310 311 309 310 317 316 315 315 317 317 317
302 303 305 306 306 307 308 310 311 312 311 308 308 309 309 309 308 310 310 309 309 312 308 307 308 309 309 310 310 311 310 310 309 308 308 309 309 316 315 315 313 317 318 319 317
304 303 303 305 306 308 309 310 313 311 309 308 308 309 307 307 308 308 307 307 307 307 307 304 306 307 309 310 310 311 310 310 310 310 311 314 313 314 313 313 313 316 317 318 317
302 304 302 305 306 307 308 310 310 309 309 308 306 306 306 306 306 306 304 305 305 306 306 306 305 304 306 309 311 311 311 310 311 313 313 313 311 312 312 311 310 310 315 315 316
Wind_Speed
26 25 24 24 20 18 14 11 10 9 9 9 9 11 14 18 18 7 5 7 5 9 5 4 6 8 4 4 5 4 3 3 4 2 6 10 6 6 4 10 4 4 11 21 39
27 27 25 27 23 20 17 13 9 9 9 9 10 12 14 18 19 11 13 8 8 7 5 4 3 6 3 4 1 4 4 7 8 5 7 8 5 8 4 5 6 11 18 37 33
30 29 27 27 25 21 18 15 10 9 8 8 10 11 13 16 5 7 3 19 14 10 7 4 4 2 4 1 3 3 7 8 15 13 2 6 6 8 2 5 5 14 24 26 31
32 32 30 30 26 21 19 17 11 9 8 7 8 9 13 4 3 6 4 12 14 10 7 3 2 3 4 5 5 3 9 8 16 5 4 4 2 4 5 3 2 20 25 18 17
34 34 31 32 27 23 20 18 12 9 8 7 7 9 4 1 9 8 9 12 12 10 7 1 3 1 3 4 2 6 12 11 16 9 8 3 4 3 6 6 5 8 22 19 15
37 38 33 33 27 24 22 17 12 8 8 7 5 6 2 4 6 11 15 13 13 13 6 6 6 7 5 2 2 4 6 10 6 4 3 4 4 5 6 7 4 7 7 11 12
39 39 35 35 28 24 24 17 10 7 7 6 5 3 2 13 6 8 18 16 16 15 4 10 7 3 3 9 1 6 6 8 4 2 2 4 8 4 9 6 9 2 8 8 8
42 41 38 36 30 24 25 15 8 4 4 5 3 1 7 8 7 17 16 17 17 18 19 14 6 2 1 3 9 6 2 4 7 5 6 7 11 13 9 5 8 10 8 9 8
44 43 38 39 33 25 21 12 5 3 3 3 1 3 9 11 11 26 26 19 22 20 19 7 3 2 5 3 5 6 4 6 11 6 6 6 11 15 8 6 9 9 9 9 8
45 44 39 38 30 27 15 7 4 1 2 2 2 3 6 5 7 17 27 30 10 4 1 1 5 1 3 4 4 7 5 4 7 12 2 12 18 10 7 6 10 9 10 10 10
47 46 40 37 26 22 13 2 4 3 3 7 7 6 8 4 11 10 18 19 8 4 5 3 2 7 12 8 7 3 5 8 6 6 2 4 6 7 10 3 7 8 9 9 10
48 47 39 33 23 13 7 1 5 9 9 15 17 18 25 17 5 6 16 6 5 6 2 4 8 13 9 9 9 13 8 6 6 6 1 7 7 8 7 8 9 10 9 10 8
50 47 40 30 16 5 13 9 21 15 3 10 11 9 8 10 9 13 9 7 5 5 6 8 15 5 7 14 10 6 2 5 7 5 4 1 6 3 6 4 7 8 9 8 12
50 49 41 30 3 16 5 24 21 14 3 7 4 5 7 6 6 11 19 7 4 10 8 7 13 10 7 6 7 4 7 6 4 4 3 3 5 5 5 9 8 11 10 11 11
51 45 37 14 11 6 16 24 21 3 4 3 3 10 4 9 2 3 18 3 9 9 6 11 6 7 5 5 2 8 5 5 3 2 3 5 3 6 6 9 12 12 15 12 14
50 40 29 5 9 9 21 22 6 4 5 6 2 1 3 1 3 2 5 4 6 8 4 9 4 4 6 7 4 6 4 4 5 3 7 5 4 10 4 7 7 9 12 19 19
49 39 15 6 4 13 19 5 4 3 7 7 4 6 3 1 5 4 5 6 6 4 5 6 6 6 4 7 8 10 7 4 5 3 10 4 4 6 6 10 11 13 17 19 20
47 27 8 9 9 17 11 4 3 3 3 5 6 9 3 8 5 6 2 5 4 2 2 4 5 4 7 6 2 4 6 4 5 4 9 3 4 5 6 10 13 16 14 18 20
44 20 5 4 10 7 5 2 5 1 3 6 6 4 6 7 8 8 8 5 7 8 3 4 3 4 6 1 4 4 4 4 3 4 1 5 5 3 11 15 18 17 15 13 13
23 13 7 9 9 3 4 5 2 3 2 3 2 4 4 8 4 5 4 4 5 5 2 2 0 5 6 3 7 6 2 4 4 3 6 3 2 2 9 12 14 18 13 9 8
7 4 5 17 3 5 2 5 3 6 5 4 3 3 3 2 2 4 4 7 4 4 9 1 3 4 3 4 3 5 2 1 2 4 4 1 5 4 4 7 13 10 12 7 8
8 3 8 19 4 1 2 7 6 2 6 6 4 6 3 5 3 2 4 5 6 3 4 3 3 1 2 7 5 2 4 5 4 6 3 4 6 8 17 13 13 11 12 15 8
3 3 11 9 4 4 7 5 3 2 2 2 4 4 2 2 4 3 4 11 12 6 3 3 2 3 8 6 6 5 4 1 3 1 5 3 5 8 12 9 11 10 13 12 15
2 4 4 5 2 3 6 4 7 6 4 4 1 5 4 5 5 5 7 6 6 5 5 4 3 6 6 6 3 6 8 5 3 2 5 7 10 3 4 6 6 11 12 9 12
3 3 0 3 4 8 2 4 6 5 4 7 6 3 2 3 6 5 6 7 7 6 4 4 4 3 5 7 7 5 7 8 8 6 7 12 7 4 4 5 7 5 8 10 11
3 3 4 4 4 4 5 5 8 1 2 2 4 5 5 2 1 1 3 4 4 5 4 4 3 3 2 5 6 6 9 12 13 13 7 4 4 2 2 3 4 6 5 6 6
7 6 1 4 4 3 3 7 9 8 1 7 3 2 3 3 5 5 6 6 8 5 3 1 3 2 4 5 3 4 6 6 3 1 3 4 5 5 5 8 8 7 6 5 6
Wind_Direction
14 12 9 5 360 353 344 324 315 312 311 312 313 319 327 330 333 306 244 225 256 226 229 246 258 256 283 259 197 112 48 262 254 280 292 326 337 343 36 98 185 148 128 169 168
11 8 6 4 359 353 347 329 307 304 306 309 312 321 329 333 328 274 241 220 223 218 213 195 279 354 316 249 285 125 153 239 209 246 286 297 38 311 79 79 36 79 115 157 172
9 6 1 360 357 351 346 337 309 292 291 299 309 321 328 330 334 250 274 227 231 227 215 216 274 154 233 21 240 217 215 239 264 254 210 269 12 341 49 71 163 146 150 163 178
7 3 0 357 353 349 344 339 316 287 282 289 302 319 325 340 283 309 184 203 212 209 220 218 144 189 219 202 209 240 260 241 262 259 223 228 268 18 4 8 198 158 163 169 178
4 360 358 355 350 347 343 338 322 288 275 284 305 327 333 22 248 264 178 179 201 216 228 144 320 155 245 243 321 183 260 261 245 256 228 196 144 216 290 297 57 112 151 177 187
4 0 357 355 349 344 341 334 322 292 266 271 296 329 70 276 274 250 198 194 212 211 221 167 233 220 254 262 186 245 288 276 275 275 260 234 229 130 274 296 347 141 178 162 167
0 358 355 353 348 340 338 330 319 297 267 263 283 320 225 240 226 212 197 213 212 220 239 268 231 64 4 333 324 288 311 325 294 304 263 12 312 228 228 269 290 248 187 188 195
359 357 353 350 345 339 334 325 309 295 272 258 258 194 250 263 199 188 207 230 230 237 247 263 16 77 81 312 346 345 54 1 286 323 272 127 268 261 240 178 251 260 204 190 190
357 356 351 348 345 338 335 328 301 285 282 247 203 162 266 303 205 221 217 224 234 248 250 259 62 203 351 52 359 359 256 293 304 204 246 172 263 261 254 217 249 245 219 207 203
355 355 348 346 347 338 341 338 295 205 126 115 260 8 268 255 219 199 212 222 231 209 263 186 51 322 3 84 227 225 237 284 260 283 238 254 242 247 247 195 236 251 203 204 205
354 353 347 343 344 339 349 8 16 34 210 202 199 230 285 239 312 240 185 198 229 89 179 238 122 234 240 215 236 268 247 254 252 243 327 297 283 245 249 267 244 242 213 235 229
353 351 346 340 339 339 7 46 252 301 290 223 231 231 242 262 310 282 201 149 166 224 209 4 243 243 250 245 234 253 227 275 271 293 75 296 282 259 250 254 239 219 244 230 240
352 350 346 337 337 17 324 323 345 344 299 286 222 221 209 186 222 238 174 166 166 220 236 196 246 280 261 260 246 245 259 262 255 334 338 8 321 298 291 243 304 310 274 265 228
350 348 346 335 44 338 303 344 345 343 7 278 229 253 165 198 279 220 194 151 175 205 232 233 259 251 283 242 206 210 236 240 273 49 283 71 276 293 293 326 322 308 302 281 260
347 347 339 334 309 314 330 345 331 38 338 269 131 169 133 162 171 258 177 110 182 213 137 250 284 301 300 245 289 242 252 225 219 294 24 347 1 273 15 326 293 302 288 287 265
345 344 335 323 294 323 344 334 341 52 259 346 110 177 78 209 248 323 148 121 176 219 221 242 258 218 238 271 232 269 281 24 45 86 273 177 163 294 307 261 310 294 344 0 336
342 341 328 288 267 342 339 4 54 160 302 341 349 343 180 287 297 168 180 179 192 182 252 268 266 281 341 332 351 41 44 353 337 334 261 161 269 261 290 0 12 11 12 14 9
342 343 318 286 311 312 333 55 174 261 327 13 337 325 57 31 27 350 160 203 58 32 33 182 318 33 346 93 287 307 126 157 215 237 282 324 248 252 90 40 37 28 16 17 13
341 352 2 339 338 315 65 79 208 354 341 341 331 16 337 41 9 8 6 49 34 21 89 48 295 324 94 141 109 331 49 247 198 271 293 215 280 44 30 22 11 7 18 15 17
337 335 305 351 320 37 76 240 202 26 353 345 99 68 14 339 41 22 355 21 107 54 55 299 233 1 336 45 32 111 268 22 20 289 287 259 212 236 22 6 4 347 356 349 5
2 13 351 346 301 55 175 240 115 52 50 44 37 358 30 12 319 335 337 69 52 49 81 58 115 294 24 41 338 13 34 86 156 171 219 314 267 147 83 346 349 344 340 331 345
354 1 345 342 46 35 13 320 323 61 17 38 67 41 42 354 333 320 34 31 350 356 62 333 128 228 235 285 312 145 63 92 106 292 266 192 249 8 23 24 17 359 354 346 312
349 276 351 33 62 346 317 321 310 99 19 67 47 33 16 311 323 341 7 61 38 44 47 358 30 9 339 355 12 56 40 343 213 116 221 215 252 359 29 31 5 354 343 345 334
356 3 332 26 75 49 348 323 345 331 41 71 34 26 12 353 25 316 2 3 38 29 89 61 141 159 201 222 205 288 293 290 142 127 263 255 287 349 13 0 345 339 338 351 353
25 330 254 331 336 333 295 287 311 343 50 25 13 45 90 2 346 3 358 344 354 41 51 80 214 214 237 251 268 267 292 286 279 241 218 297 279 200 319 323 317 324 337 352 1
49 24 340 290 291 313 352 334 299 98 123 318 64 7 42 55 124 291 11 17 266 344 48 22 289 352 276 280 284 292 281 276 275 283 279 281 267 285 178 218 293 291 306 326 346
353 326 118 284 322 3 13 331 353 344 91 107 112 49 337 256 171 193 200 207 224 237 147 239 164 67 272 271 305 295 256 246 269 192 261 291 280 326 334 342 314 312 283 289 295